Overview Statistics Trail Chart Weather Telemetry Raw packets
 

This is the latest recevied weather packets stored in our database for station/object HB9FHL-13. If no packets are shown the sender has not sent any weather packets the latest 10 day(s).

<< 59 60 61 62 63 64 65 >>
Time Temp. Humidity Pressure Rain* Wind** Luminosity Snow
1788316981 17.22° C - 1022.7 hPa 0 mm - - -
1788316680 17.78° C - 1022.3 hPa 0 mm - - -
1788316380 17.78° C - 1022.7 hPa 0 mm - - -
1788316078 17.22° C - 1022.1 hPa 0 mm - - -
1788315776 17.78° C - 1021.4 hPa 0 mm - - -
1788315475 17.78° C - 1023.6 hPa 0 mm - - -
1788315175 17.78° C - 1023.3 hPa 0 mm - - -
1788314874 17.78° C - 1022.4 hPa 0 mm - - -
1788314574 17.78° C - 1022.8 hPa 0 mm - - -
1788314273 17.78° C - 1023.7 hPa 0 mm - - -
1788313973 18.33° C - 1022.8 hPa 0 mm - - -
1788313672 17.78° C - 1021.7 hPa 0 mm - - -
1788313435 17.78° C - 1024 hPa 0 mm - - -
1788313372 17.78° C - 1024 hPa 0 mm - - -
1788313071 18.33° C - 1022.7 hPa 0 mm - - -
1788312815 17.78° C - 1023.3 hPa 0 mm - - -
1788312771 17.78° C - 1023.3 hPa 0 mm - - -
1788312470 17.22° C - 1023.7 hPa 0 mm - - -
1788312170 17.78° C - 1023.6 hPa 0 mm - - -
1788311869 17.22° C - 1022.4 hPa 0 mm - - -
1788311569 18.33° C - 1023.8 hPa 0 mm - - -
1788311268 17.78° C - 1025.1 hPa 0 mm - - -
1788310968 17.22° C - 1023.4 hPa 0 mm - - -
1788310667 17.78° C - 1023.5 hPa 0 mm - - -
1788310367 18.33° C - 1024.4 hPa 0 mm - - -

* Rain since midnight (hover to see other rain measurements)
** Current wind speed in m/s (hover to see current wind gust speed)